COSMOS 700 DEB

Satellite information

Favourite Embed

Satellite Type and Status

DEBRISIN ORBIT

Key statistics

Satellite COSMOS 700 DEB at a glance.

Uptime

18616

Days in orbit

Revolutions

≈ 14.0

Per day

Orbit

LEO

Low Earth Orbit

Inclination

82.9

Latest

Satellite identification and parameters

Extended collection of information and parameters for COSMOS 700 DEB.

Object identification

Identified? True

Debris? True

Object name: COSMOS 700 DEB

International designator: 1974-105C

Object number (NORAD): 23308

Object ID (CCSDS): 23308

Country: COMMONWEALTH OF INDEPENDENT STATES (CIS)

Current information (Y/N): Y

RCS size: SMALL

Orbital parameters

Period: 103.181 minutes

Inclination: 82.9434 deg

SMA: 7287.185 km

Apoapsis: 922.083 km

Periapsis: 896.018 km

RAAN: 50.3323 deg

Eccentricy: 0.00178837

Argument of periapsis: 335.6181 deg

Mean anomaly: 53.5975 deg

Mean motion: 13.95606669 rev/day

Mean motion (dot): 0.00001769 rev/day2

B* drag term: 0.001287953 1/REarth

Two-line elements (TLE)

Creation date: Dec. 12, 2025, 10:14 a.m.

Reference frame: TEME

Reference center: EARTH

Epoch: Dec. 12, 2025, 4:04 a.m. UTC

TLE line 0: 0 COSMOS 700 DEB

TLE line 1: 1 23308U 74105C 25346.16975963 .00001769 00000-0 12880-2 0 9993

TLE line 2: 2 23308 82.9434 50.3323 0017884 335.6181 53.5975 13.95606669650746

Live tracking on map

Real-time ground track for satellite COSMOS 700 DEB.

In-orbit conjunctions

A list of the most updated potential collisions computed for object COSMOS 700 DEB.

Target Orbit TCA Probability of collision Miss distance Type
SCOUT A R/B LEO 2025-11-25 00:10:37 0.0001373691 184.0 (m) ROCKET BODY
CZ-6A DEB SSO 2025-10-24 06:03:48 0.0003621499 36.0 (m) DEBRIS
CZ-4 R/B SSO 2025-08-20 04:01:27 0.0002656672 564.0 (m) ROCKET BODY
DMSP 5D-2 F14 DEB SSO 2025-02-24 01:06:32 0.0001177928 896.0 (m) DEBRIS

Associated space launch

Navigation satellite providing location information for the Tsiklon-B navigation system

COSMOS 700 DEB was lifted into orbit during the mission ‘Kosmos-3M | Parus 1’, on board a Kosmos-3M space rocket.

The launch took place on Dec. 26, 1974, 11:59 a.m. from 132/1 (132L).

For more information about the launch, click the button.

Launch to space Kosmos-3M | Parus 1
Kosmos-3M | Parus 1

Agency: N/A

Status: Launch Successful

Launch date: Dec. 26, 1974, 11:59 a.m. UTC

Rocket: Kosmos-3M

Launch pad: 132/1 (132L)

Location: Plesetsk Cosmodrome, Russian Federation

...

Latest news about this satellite

There are no fresh news available about this satellite. Check back as we update our databases every day.


Newsletter sign-up

Weekly statistics, charts and insights to help you stay on top of the space industry.